Tuscaloosa, AL

11:18 PM CDT on May 28, 2017 (GMT -0500)
Tuscaloosa Municipal

Weather History for KTCL - July, 2012

Change the Weather History Date:

Monday, July 2, 2012

  Actual Average Record
Temperature  
Mean Temperature 86 °F 81 °F  
Max Temperature 99 °F 92 °F 102 °F (1970)
Min Temperature 73 °F 71 °F 58 °F (2008)
Cooling Degree Days 20    
Growing Degree Days 36 (Base 50)    
Moisture  
Dew Point 70 °F    
Average Humidity 61    
Maximum Humidity 87    
Minimum Humidity 35    
Precipitation  
Precipitation 0.00 in 0.16 in 1.48 in (1989)
Month to date precipitation 0.00 0.32  
Year to date precipitation 21.72 28.49  
Sea Level Pressure  
Sea Level Pressure 30.04 in    
Wind  
Wind Speed 3 mph (SW)    
Max Wind Speed 12 mph    
Max Gust Speed 16 mph    
Visibility 7 miles    
Events Thunderstorm    
T = Trace of Precipitation, MM = Missing Value Source: NWS Daily Summary

Daily Weather History Graph

Daily Weather History Graph

Search for Another Location

Airport or City:

Trip Planner

Search our weather history database for the weather conditions in past years. The results will help you decide how hot, cold, wet, or windy it might be!

Date:

Astronomy

Jul. 02, 2012 Rise Set
Actual Time 5:45 AM CDT 8:03 PM CDT
Civil Twilight 5:16 AM CDT 8:32 PM CDT
Nautical Twilight 4:41 AM CDT 9:07 PM CDT
Astronomical Twilight 4:03 AM CDT 9:45 PM CDT
Moon 7:07 PM CDT (7/2) 4:31 AM CDT (7/2)
Length of Visible Light 15h 15m
Length of Day
14h 18m
Waxing Gibbous, 98% of the Moon is Illuminated
Jul 2
Waxing Gibbous
Jul 3
Full
Jul 10
Last Quarter
Jul 18
New
Jul 26
First Quarter

Hourly Weather History & Observations

Time (CDT) Temp. Heat Index Dew Point Humidity Pressure Visibility Wind Dir Wind Speed Gust Speed Precip Events Conditions
12:53 AM 75.9 °F - 71.1 °F 85% 30.00 in 7.0 mi WSW 3.5 mph - N/A   Clear
1:53 AM 75.9 °F - 70.0 °F 82% 30.00 in 7.0 mi Calm Calm - N/A   Clear
2:53 AM 73.9 °F - 70.0 °F 87% 30.00 in 6.0 mi Calm Calm - N/A   Clear
3:53 AM 75.0 °F - 70.0 °F 84% 30.00 in 6.0 mi Calm Calm - N/A   Haze
4:53 AM 73.9 °F - 70.0 °F 87% 30.04 in 6.0 mi Calm Calm - N/A   Clear
5:53 AM 75.9 °F - 72.0 °F 87% 30.06 in 6.0 mi Calm Calm - N/A   Clear
6:53 AM 77.0 °F - 72.0 °F 84% 30.07 in 4.0 mi Calm Calm - N/A   Haze
7:53 AM 80.1 °F 83.6 °F 71.1 °F 74% 30.09 in 5.0 mi Calm Calm - N/A   Haze
8:44 AM 82.4 °F 87.2 °F 71.6 °F 70% 30.12 in 8.0 mi Calm Calm - N/A Thunderstorm Mostly Cloudy
8:53 AM 82.0 °F 86.3 °F 71.1 °F 69% 30.12 in 8.0 mi ENE 3.5 mph - N/A Thunderstorm Mostly Cloudy
9:09 AM 82.4 °F 87.2 °F 71.6 °F 70% 30.13 in 4.0 mi NE 8.1 mph - N/A   Haze
9:16 AM 82.4 °F 87.2 °F 71.6 °F 70% 30.14 in 4.0 mi NE 6.9 mph - N/A Thunderstorm Haze
9:53 AM 82.9 °F 88.0 °F 72.0 °F 69% 30.13 in 4.0 mi East 5.8 mph - N/A Thunderstorm Haze
10:23 AM 84.2 °F 89.6 °F 71.6 °F 66% 30.14 in 4.0 mi Calm Calm - N/A   Haze
10:53 AM 84.0 °F 89.6 °F 72.0 °F 67% 30.14 in 3.0 mi South 4.6 mph - N/A   Haze
11:53 AM 86.0 °F 93.0 °F 73.0 °F 65% 30.12 in 4.0 mi South 3.5 mph - N/A   Haze
12:53 PM 91.9 °F 100.7 °F 73.0 °F 54% 30.09 in 5.0 mi South 10.4 mph - N/A   Haze
1:53 PM 91.9 °F 97.4 °F 70.0 °F 48% 30.06 in 7.0 mi Calm Calm - N/A   Clear
2:53 PM 97.0 °F 100.4 °F 66.0 °F 36% 30.03 in 9.0 mi West 9.2 mph - N/A   Clear
3:53 PM 97.0 °F 102.2 °F 68.0 °F 39% 30.00 in 8.0 mi West 5.8 mph - N/A   Clear
4:53 PM 98.1 °F 102.4 °F 66.9 °F 36% 29.98 in 9.0 mi West 5.8 mph - N/A   Partly Cloudy
5:51 PM 96.8 °F 101.8 °F 68.0 °F 39% 29.98 in 9.0 mi SSW 6.9 mph - N/A Thunderstorm Mostly Cloudy
5:53 PM 96.8 °F 101.8 °F 68.0 °F 39% 29.98 in 9.0 mi SW 5.8 mph - N/A Thunderstorm Mostly Cloudy
6:06 PM 98.6 °F 102.8 °F 66.2 °F 35% 29.98 in 10.0 mi WSW 8.1 mph - N/A   Mostly Cloudy
6:16 PM 96.8 °F 100.7 °F 66.2 °F 37% 29.99 in 10.0 mi West 6.9 mph - N/A Thunderstorm Mostly Cloudy
6:31 PM 96.8 °F 101.8 °F 68.0 °F 39% 29.98 in 10.0 mi Variable 4.6 mph - N/A   Scattered Clouds
6:53 PM 96.1 °F 99.9 °F 66.9 °F 38% 29.99 in 10.0 mi West 5.8 mph - N/A   Clear
7:09 PM 95.0 °F 98.5 °F 66.2 °F 39% 29.99 in 10.0 mi West 6.9 mph - N/A Thunderstorm Clear
7:31 PM 93.2 °F 96.2 °F 66.2 °F 41% 29.99 in 10.0 mi West 4.6 mph - N/A   Clear
7:53 PM 93.0 °F 97.9 °F 69.1 °F 45% 30.00 in 9.0 mi NE 4.6 mph - N/A   Clear
8:53 PM 87.1 °F 94.5 °F 73.0 °F 63% 30.01 in 8.0 mi Calm Calm - N/A   Clear
9:53 PM 84.0 °F 90.2 °F 73.0 °F 69% 30.02 in 9.0 mi South 3.5 mph - N/A   Clear
10:53 PM 82.9 °F 88.8 °F 73.0 °F 72% 30.02 in 9.0 mi Calm Calm - N/A   Clear
11:53 PM 80.1 °F 84.2 °F 73.0 °F 79% 30.04 in 8.0 mi Calm Calm - N/A   Clear